Thompson, Ohio, United States (44086)
Lat: 41.69N, Lon: 81.05W
Wx Zone: OHZ013
Local Info
Past Weather Observations for Sunday, September 14, 2014

NOTE: This archive is for the closest National Weather Service station to Thompson. Information may differ from the station used for current weather conditions.

Click here for Long-term Archive

Time Weather Temperature Dewpoint Humidity Pressure Winds Precip Visibility
23:53
Overcast
48°F / 9°C 46°F / 8°C 94% 30.24 in
(1024 mb)
Calm - 10SM
22:53
Clear
45°F / 7°C 43°F / 6°C 93% 30.24 in
(1024 mb)
Calm - 7SM
21:53
Clear
46°F / 8°C 45°F / 7°C 93% 30.24 in
(1024 mb)
Calm - 10SM
20:53
Clear
46°F / 8°C 45°F / 7°C 93% 30.24 in
(1024 mb)
Calm - 10SM
19:53
Clear
48°F / 9°C 46°F / 8°C 94% 30.24 in
(1024 mb)
Calm - 10SM
18:53
Partly Cloudy
52°F / 11°C 46°F / 8°C 82% 30.24 in
(1024 mb)
Calm - 10SM
17:53
Partly Cloudy
57°F / 14°C 46°F / 8°C 67% 30.24 in
(1024 mb)
N 3.5 mph
(N 6 kph)
- 10SM
16:53
Mostly Cloudy
61°F / 16°C 46°F / 8°C 59% 30.24 in
(1024 mb)
N 4.6 mph
(N 7 kph)
- 10SM
15:53
Mostly Cloudy
63°F / 17°C 45°F / 7°C 52% 30.24 in
(1024 mb)
N 5.8 mph
(N 9 kph)
- 10SM
14:53
Mostly Cloudy
61°F / 16°C 43°F / 6°C 52% 30.24 in
(1024 mb)
Calm - 10SM
13:53
Mostly Cloudy
61°F / 16°C 41°F / 5°C 48% 30.27 in
(1025 mb)
Calm - 10SM
12:53
Mostly Cloudy
61°F / 16°C 41°F / 5°C 48% 30.3 in
(1026 mb)
Calm - 10SM
11:53
Partly Cloudy
59°F / 15°C 43°F / 6°C 55% 30.3 in
(1026 mb)
SSE 3.5 mph
(SSE 6 kph)
- 10SM
10:53
Partly Cloudy
57°F / 14°C 45°F / 7°C 63% 30.33 in
(1027 mb)
Variable 4.6 mph
(Variable 7 kph)
- 10SM
09:53
Overcast
55°F / 13°C 45°F / 7°C 67% 30.36 in
(1028 mb)
Calm - 10SM
08:53
Overcast
54°F / 12°C 48°F / 9°C 82% 30.36 in
(1028 mb)
Calm - 10SM
07:53
Overcast
52°F / 11°C 48°F / 9°C 88% 30.36 in
(1028 mb)
Calm - 10SM
06:53
Overcast
52°F / 11°C 48°F / 9°C 88% 30.36 in
(1028 mb)
ESE 4.6 mph
(ESE 7 kph)
- 10SM
05:53
Overcast
52°F / 11°C 50°F / 10°C 94% 30.33 in
(1027 mb)
Calm - 10SM
04:53
Overcast
52°F / 11°C 50°F / 10°C 94% 30.33 in
(1027 mb)
Calm - 10SM
03:53
Overcast
52°F / 11°C 50°F / 10°C 94% 30.33 in
(1027 mb)
Calm - 10SM
02:53
Overcast
52°F / 11°C 50°F / 10°C 94% 30.33 in
(1027 mb)
Calm - 10SM
02:15
Overcast
52°F / 11°C 48°F / 9°C 88% 30.33 in
(1027 mb)
Calm - 10SM
01:53
Overcast
52°F / 11°C 48°F / 9°C 88% 30.33 in
(1027 mb)
Calm - 10SM
01:37
Overcast
52°F / 11°C 48°F / 9°C 88% 30.33 in
(1027 mb)
Calm - 10SM
00:53
Overcast
52°F / 11°C 48°F / 9°C 88% 30.33 in
(1027 mb)
Calm - 10SM
Time Weather Temperature Dewpoint Humidity Pressure Winds Precip Visibility


Weather for websites

WeatherForYou.com, LLC is not responsible for any damages or problems caused by this service. Current weather conditions are obtained from the closest station including government and personal stations which may have varying degrees of accuracy. Weather forecasts are derived from the NOAA NDFD. Like all things, this site belongs to Jesus Christ... He just trusts me to maintain it. If you have any questions or comments email webmaster@weatherforyou.com

Copyright © 2014, WeatherForYou.com LLC. All rights reserved.